• In Belarus
  • List of Countries
  • For 7 days
  • Water Temperature
  • Weather Map
  • Weather Widgets
  • user-avatar
    Login

    Hourly Weather Encamp

    Today, 20 January, Monday

    Time Temperature Precipitation Wind Pressure Humidity
    00:00 -10°C° 0 mm 4 mps 625 mmHg 77%
    01:00 -10°C° 0 mm 4 mps 625 mmHg 77%
    02:00 -10°C° 0 mm 3 mps 625 mmHg 77%
    03:00 -10°C° 0 mm 3 mps 624 mmHg 77%
    04:00 -10°C° 0 mm 3 mps 625 mmHg 78%
    05:00 -10°C° 0 mm 3 mps 625 mmHg 79%
    06:00 -9°C° 0 mm 2 mps 625 mmHg 81%
    07:00 -9°C° 0.1 mm 3 mps 626 mmHg 79%
    08:00 -8°C° 0.1 mm 3 mps 626 mmHg 77%
    09:00 -7°C° 0.1 mm 3 mps 627 mmHg 75%
    10:00 -6°C° 0.1 mm 3 mps 627 mmHg 72%
    11:00 -5°C° 0.1 mm 3 mps 628 mmHg 70%
    12:00 -4°C° 0.1 mm 3 mps 628 mmHg 67%
    13:00 -4°C° 0 mm 3 mps 628 mmHg 69%
    14:00 -4°C° 0 mm 3 mps 627 mmHg 71%
    15:00 -4°C° 0 mm 3 mps 627 mmHg 73%
    16:00 -5°C° 0 mm 3 mps 627 mmHg 77%
    17:00 -6°C° 0 mm 3 mps 626 mmHg 81%
    18:00 -7°C° 0 mm 3 mps 626 mmHg 85%
    19:00 -7°C° 0 mm 3 mps 626 mmHg 84%
    20:00 -7°C° 0 mm 3 mps 626 mmHg 83%
    21:00 -6°C° 0 mm 2 mps 626 mmHg 81%
    22:00 -6°C° 0.1 mm 2 mps 626 mmHg 81%
    23:00 -6°C° 0.1 mm 3 mps 626 mmHg 81%

    Tomorrow, 21 January, Tuesday

    Time Temperature Precipitation Wind Pressure Humidity
    00:00 -6°C° 0.1 mm 3 mps 626 mmHg 81%
    01:00 -6°C° 0.6 mm 3 mps 626 mmHg 83%
    02:00 -5°C° 0.6 mm 2 mps 626 mmHg 85%
    03:00 -4°C° 0.6 mm 2 mps 625 mmHg 87%
    04:00 -4°C° 1.5 mm 2 mps 625 mmHg 89%
    05:00 -4°C° 1.5 mm 2 mps 625 mmHg 90%
    06:00 -4°C° 1.5 mm 2 mps 625 mmHg 92%
    07:00 -3°C° 1 mm 2 mps 626 mmHg 91%
    08:00 -2°C° 1 mm 2 mps 626 mmHg 90%
    09:00 -2°C° 1 mm 2 mps 627 mmHg 89%
    10:00 -1°C° 0.9 mm 2 mps 627 mmHg 88%
    11:00 0°C° 0.9 mm 3 mps 627 mmHg 86%
    12:00 +1°C° 0.9 mm 3 mps 627 mmHg 85%
    13:00 0°C° 1.1 mm 3 mps 627 mmHg 87%
    14:00 +1°C° 1.1 mm 2 mps 626 mmHg 90%
    15:00 +1°C° 1.1 mm 2 mps 626 mmHg 92%
    16:00 -1°C° 1.5 mm 2 mps 626 mmHg 94%
    17:00 -1°C° 1.5 mm 2 mps 625 mmHg 95%
    18:00 -2°C° 1.5 mm 2 mps 625 mmHg 97%
    19:00 -2°C° 1.7 mm 2 mps 625 mmHg 97%
    20:00 -2°C° 1.7 mm 2 mps 625 mmHg 96%
    21:00 -2°C° 1.7 mm 3 mps 625 mmHg 96%
    22:00 -2°C° 4.6 mm 2 mps 624 mmHg 97%
    23:00 -2°C° 4.6 mm 2 mps 624 mmHg 97%

    Day after tomorrow, 22 January, Wednesday

    Time Temperature Precipitation Wind Pressure Humidity
    00:00 -2°C° 4.6 mm 2 mps 624 mmHg 97%
    01:00 -2°C° 6.7 mm 2 mps 624 mmHg 97%
    02:00 -1°C° 6.7 mm 2 mps 624 mmHg 98%
    03:00 +1°C° 6.7 mm 1 mps 623 mmHg 98%
    04:00 +1°C° 4.4 mm 1 mps 623 mmHg 99%
    05:00 +1°C° 4.4 mm 1 mps 623 mmHg 99%
    06:00 +1°C° 4.4 mm 1 mps 623 mmHg 99%
    07:00 +1°C° 3 mm 1 mps 623 mmHg 99%
    08:00 +1°C° 3 mm 1 mps 623 mmHg 99%
    09:00 +1°C° 3 mm 1 mps 623 mmHg 99%
    10:00 +1°C° 4.7 mm 1 mps 623 mmHg 99%
    11:00 +1°C° 4.7 mm 1 mps 623 mmHg 99%
    12:00 +1°C° 4.7 mm 1 mps 622 mmHg 99%
    13:00 -1°C° 5.7 mm 2 mps 622 mmHg 99%
    14:00 -1°C° 5.7 mm 2 mps 621 mmHg 99%
    15:00 -1°C° 5.7 mm 2 mps 621 mmHg 99%
    16:00 -1°C° 4.9 mm 2 mps 621 mmHg 99%
    17:00 -1°C° 4.9 mm 2 mps 621 mmHg 99%
    18:00 0°C° 4.9 mm 3 mps 621 mmHg 99%
    19:00 -1°C° 3.6 mm 3 mps 621 mmHg 99%
    20:00 -1°C° 3.6 mm 2 mps 621 mmHg 99%
    21:00 -1°C° 3.6 mm 2 mps 622 mmHg 99%
    22:00 -1°C° 1 mm 2 mps 622 mmHg 98%
    23:00 -1°C° 1 mm 2 mps 622 mmHg 97%

    23 January, Thursday

    Time Temperature Precipitation Wind Pressure Humidity
    00:00 -1°C° 1 mm 2 mps 622 mmHg 97%
    01:00 -2°C° 0 mm 2 mps 622 mmHg 96%
    02:00 -2°C° 0 mm 2 mps 622 mmHg 95%
    03:00 -2°C° 0 mm 2 mps 621 mmHg 95%
    04:00 -3°C° 0 mm 2 mps 621 mmHg 93%
    05:00 -4°C° 0 mm 2 mps 621 mmHg 92%
    06:00 -5°C° 0 mm 2 mps 621 mmHg 90%
    07:00 -4°C° 0 mm 2 mps 621 mmHg 90%
    08:00 -3°C° 0 mm 2 mps 622 mmHg 89%
    09:00 -2°C° 0 mm 2 mps 623 mmHg 89%
    10:00 +1°C° 0 mm 1 mps 623 mmHg 91%
    11:00 +1°C° 0 mm 1 mps 623 mmHg 93%
    12:00 +2°C° 0 mm 1 mps 624 mmHg 95%
    13:00 +2°C° 0 mm 1 mps 623 mmHg 95%
    14:00 +2°C° 0 mm 1 mps 623 mmHg 94%
    15:00 +1°C° 0 mm 1 mps 623 mmHg 93%
    16:00 0°C° 0 mm 1 mps 622 mmHg 90%
    17:00 -2°C° 0 mm 1 mps 622 mmHg 87%
    18:00 -5°C° 0 mm 2 mps 622 mmHg 84%
    19:00 -5°C° 0 mm 2 mps 622 mmHg 81%
    20:00 -5°C° 0 mm 2 mps 622 mmHg 79%
    21:00 -5°C° 0 mm 2 mps 622 mmHg 76%
    22:00 -6°C° 0 mm 2 mps 622 mmHg 76%
    23:00 -6°C° 0 mm 2 mps 622 mmHg 75%

    24 January, Friday

    Time Temperature Precipitation Wind Pressure Humidity
    00:00 -6°C° 0 mm 2 mps 622 mmHg 74%
    01:00 -6°C° 0 mm 2 mps 621 mmHg 74%
    02:00 -6°C° 0 mm 2 mps 621 mmHg 73%
    03:00 -6°C° 0 mm 2 mps 621 mmHg 73%
    04:00 -6°C° 0 mm 2 mps 621 mmHg 73%
    05:00 -6°C° 0 mm 2 mps 621 mmHg 72%
    06:00 -5°C° 0 mm 2 mps 621 mmHg 72%
    07:00 -4°C° 0 mm 2 mps 622 mmHg 76%
    08:00 -3°C° 0 mm 2 mps 622 mmHg 79%
    09:00 0°C° 0 mm 1 mps 623 mmHg 82%
    10:00 +1°C° 0 mm 1 mps 623 mmHg 86%
    11:00 +1°C° 0 mm 1 mps 623 mmHg 90%
    12:00 +2°C° 0 mm 1 mps 623 mmHg 95%
    13:00 +2°C° 0 mm 1 mps 623 mmHg 95%
    14:00 +2°C° 0 mm 1 mps 622 mmHg 95%
    15:00 +2°C° 0 mm 1 mps 622 mmHg 96%
    16:00 0°C° 0 mm 1 mps 622 mmHg 92%
    17:00 -1°C° 0 mm 1 mps 621 mmHg 88%
    18:00 -5°C° 0 mm 2 mps 621 mmHg 84%
    19:00 -5°C° 0 mm 2 mps 621 mmHg 80%
    20:00 -6°C° 0 mm 2 mps 621 mmHg 76%
    21:00 -6°C° 0 mm 2 mps 621 mmHg 73%
    22:00 -6°C° 0 mm 2 mps 621 mmHg 74%
    23:00 -6°C° 0 mm 2 mps 621 mmHg 75%

    25 January, Saturday

    Time Temperature Precipitation Wind Pressure Humidity
    00:00 -6°C° 0 mm 2 mps 621 mmHg 76%
    01:00 -6°C° 0 mm 2 mps 621 mmHg 79%
    02:00 -6°C° 0 mm 2 mps 621 mmHg 81%
    03:00 -5°C° 0 mm 2 mps 621 mmHg 83%
    04:00 -5°C° 0 mm 2 mps 621 mmHg 83%
    05:00 -5°C° 0 mm 2 mps 621 mmHg 83%
    06:00 -5°C° 0 mm 2 mps 621 mmHg 83%
    07:00 -4°C° 0 mm 2 mps 621 mmHg 85%
    08:00 -1°C° 0 mm 1 mps 622 mmHg 87%
    09:00 0°C° 0 mm 1 mps 623 mmHg 89%
    10:00 +1°C° 0 mm 1 mps 623 mmHg 92%
    11:00 +2°C° 0 mm 1 mps 623 mmHg 94%
    12:00 +2°C° 0 mm 1 mps 623 mmHg 96%
    13:00 +2°C° 0 mm 1 mps 623 mmHg 96%
    14:00 +2°C° 0 mm 1 mps 623 mmHg 97%
    15:00 +2°C° 0 mm 1 mps 622 mmHg 97%
    16:00 +1°C° 0 mm 1 mps 622 mmHg 95%
    17:00 0°C° 0 mm 1 mps 622 mmHg 94%
    18:00 -1°C° 0 mm 1 mps 622 mmHg 92%
    19:00 -2°C° 0 mm 1 mps 622 mmHg 91%
    20:00 -2°C° 0 mm 1 mps 622 mmHg 89%
    21:00 -3°C° 0 mm 1 mps 622 mmHg 88%
    22:00 -3°C° 0 mm 1 mps 622 mmHg 87%
    23:00 -3°C° 0 mm 1 mps 622 mmHg 87%
    Show more